Location: Ettringen
(48.1054°N, 10.6545°E)
Time: 02:04:19
(UTC+00:00)

UNK - Pass Details

Date: 18 November 2025
Orbit: 655 x 672 km, 98.4° (Epoch: 04 December)

Event Time Altitude Azimuth Distance (km) Brightness Sun altitude
Rises 16:58:58 0° 10° (N) 3,034 6.9 -13.7°
Reaches altitude 10° 17:01:14 10° 7° (N) 2,116 6.1 -14.1°
Maximum altitude 17:05:46 57° 289° (WNW) 795 4.4 -14.8°
Drops below altitude 10° 17:10:15 10° 211° (SSW) 2,098 6.9 -15.6°
Sets 17:12:30 0° 208° (SSW) 3,006 7.7 -15.9°
